Location: Brantley
(31.5822°N, 86.2569°W)
Time: 19:40:08
(UTC+00:00)

Courier 1B Rocket - Pass Details

Date: 17 February 2026
Orbit: 920 x 1201 km, 28.2° (Epoch: 10 March)

Event Time Altitude Azimuth Distance (km) Brightness Sun altitude
Rises 01:06:02 0° 242° (WSW) 3,542 9.0 -20.4°
Reaches altitude 10° 01:08:42 10° 236° (SW) 2,609 8.0 -21.0°
Maximum altitude 01:14:39 47° 164° (SSE) 1,229 5.4 -22.3°
Enters shadow 01:16:18 39° 125° (SE) 1,397 5.4 -22.6°
Drops below altitude 10° 01:20:53 10° 93° (E) 2,728 - -23.6°
Sets 01:23:43 0° 87° (E) 3,719 - -24.2°
